Back to catalog

PIAST-M

AliveScienceSSO
NORAD 66758·PAYLOAD·🇵🇱 Poland

Launched Nov 28, 2025 from Vandenberg Space Force Base

Loading…

Next Passes (next 24 hours)

TLE

FreshSource: Space-Track

Epoch: Sep 14, 2026, 10:17 UTC

1 66758U 25276CW  26257.42906802  .00003831  00000-0  17595-3 0  9992
2 66758  97.4110 329.6645 0001957  60.4228 299.7203 15.20989414 43995

Track PIAST-M in real time with AllMySat

Download on the App Store